Year,Month,Day,Hour,Minute,Value (Times are PST for temperature in C)
2005,12,01,00,00,3.10
2005,12,01,00,01,3.10
2005,12,01,00,02,3.10
2005,12,01,00,03,3.10
2005,12,01,00,04,3.10
2005,12,01,00,05,3.10
2005,12,01,00,06,3.10
2005,12,01,00,07,3.10
2005,12,01,00,08,3.10
2005,12,01,00,09,3.10
2005,12,01,00,10,3.10
2005,12,01,00,11,3.10
2005,12,01,00,12,3.10
2005,12,01,00,13,3.10
2005,12,01,00,14,3.10
2005,12,01,00,15,3.10
2005,12,01,00,16,3.10
2005,12,01,00,17,3.10
2005,12,01,00,18,3.10
2005,12,01,00,19,3.10
2005,12,01,00,20,3.10
2005,12,01,00,21,3.10
2005,12,01,00,22,3.10
2005,12,01,00,23,3.10
2005,12,01,00,24,3.10
2005,12,01,00,25,3.10
2005,12,01,00,26,3.10
2005,12,01,00,27,3.10
2005,12,01,00,28,3.10
2005,12,01,00,29,3.00
2005,12,01,00,30,2.90
2005,12,01,00,31,3.00
2005,12,01,00,32,3.10
2005,12,01,00,33,3.10
2005,12,01,00,34,3.10
2005,12,01,00,35,3.10
2005,12,01,00,36,3.00
2005,12,01,00,37,2.90
2005,12,01,00,38,2.90
2005,12,01,00,39,2.90
2005,12,01,00,40,2.90
2005,12,01,00,41,2.90
2005,12,01,00,42,2.90
2005,12,01,00,43,2.90
2005,12,01,00,44,2.90
2005,12,01,00,45,2.90
2005,12,01,00,46,2.90
2005,12,01,00,47,2.90
2005,12,01,00,48,2.90
2005,12,01,00,49,2.90
2005,12,01,00,50,2.90
2005,12,01,00,51,2.90
2005,12,01,00,52,2.90
2005,12,01,00,53,2.90
2005,12,01,00,54,2.90
2005,12,01,00,55,2.90
2005,12,01,00,56,2.90
2005,12,01,00,57,2.90
2005,12,01,00,58,2.90
2005,12,01,00,59,2.90
2005,12,01,01,00,2.90
2005,12,01,01,01,2.90
2005,12,01,01,02,2.90
2005,12,01,01,03,2.90
2005,12,01,01,04,2.90
2005,12,01,01,05,2.90
2005,12,01,01,06,2.90
2005,12,01,01,07,2.90
2005,12,01,01,08,2.90
2005,12,01,01,09,2.90
2005,12,01,01,10,2.90
2005,12,01,01,11,2.90
2005,12,01,01,12,2.90
2005,12,01,01,13,2.90
2005,12,01,01,14,2.90
2005,12,01,01,15,2.90
2005,12,01,01,16,2.90
2005,12,01,01,17,3.00
2005,12,01,01,18,3.10
2005,12,01,01,19,3.10
2005,12,01,01,20,3.10
2005,12,01,01,21,3.00
2005,12,01,01,22,2.90
2005,12,01,01,23,2.90
2005,12,01,01,24,2.90
2005,12,01,01,25,2.90
2005,12,01,01,26,2.90
2005,12,01,01,27,2.90
2005,12,01,01,28,2.90
2005,12,01,01,29,2.90
2005,12,01,01,30,2.90
2005,12,01,01,31,2.90
2005,12,01,01,32,2.90
2005,12,01,01,33,2.90
2005,12,01,01,34,2.90
2005,12,01,01,35,2.90
2005,12,01,01,36,2.90
2005,12,01,01,37,2.90
2005,12,01,01,38,2.90
2005,12,01,01,39,2.90
2005,12,01,01,40,2.90
2005,12,01,01,41,2.90
2005,12,01,01,42,2.90
2005,12,01,01,43,2.90
2005,12,01,01,44,2.90
2005,12,01,01,45,2.90
2005,12,01,01,46,2.90
2005,12,01,01,47,2.90
2005,12,01,01,48,2.90
2005,12,01,01,49,2.80
2005,12,01,01,50,2.80
2005,12,01,01,51,2.80
2005,12,01,01,52,2.80
2005,12,01,01,53,2.80
2005,12,01,01,54,2.80
2005,12,01,01,55,2.80
2005,12,01,01,56,2.80
2005,12,01,01,57,2.80
2005,12,01,01,58,2.80
2005,12,01,01,59,2.80
2005,12,01,02,00,2.80
2005,12,01,02,01,2.80
2005,12,01,02,02,2.70
2005,12,01,02,03,2.70
2005,12,01,02,04,2.70
2005,12,01,02,05,2.70
2005,12,01,02,06,2.70
2005,12,01,02,07,2.70
2005,12,01,02,08,2.70
2005,12,01,02,09,2.70
2005,12,01,02,10,2.70
2005,12,01,02,11,2.70
2005,12,01,02,12,2.70
2005,12,01,02,13,2.70
2005,12,01,02,14,2.70
2005,12,01,02,15,2.70
2005,12,01,02,16,2.60
2005,12,01,02,17,2.60
2005,12,01,02,18,2.60
2005,12,01,02,19,2.60
2005,12,01,02,20,2.60
2005,12,01,02,21,2.50
2005,12,01,02,22,2.50
2005,12,01,02,23,2.50
2005,12,01,02,24,2.50
2005,12,01,02,25,2.50
2005,12,01,02,26,2.50
2005,12,01,02,27,2.50
2005,12,01,02,28,2.50
2005,12,01,02,29,2.50
2005,12,01,02,30,2.50
2005,12,01,02,31,2.40
2005,12,01,02,32,2.40
2005,12,01,02,33,2.40
2005,12,01,02,34,2.40
2005,12,01,02,35,2.30
2005,12,01,02,36,2.30
2005,12,01,02,37,2.30
2005,12,01,02,38,2.30
2005,12,01,02,39,2.30
2005,12,01,02,40,2.20
2005,12,01,02,41,2.20
2005,12,01,02,42,2.20
2005,12,01,02,43,2.20
2005,12,01,02,44,2.20
2005,12,01,02,45,2.20
2005,12,01,02,46,2.20
2005,12,01,02,47,2.20
2005,12,01,02,48,2.20
2005,12,01,02,49,2.20
2005,12,01,02,50,2.20
2005,12,01,02,51,2.20
2005,12,01,02,52,2.20
2005,12,01,02,53,2.20
2005,12,01,02,54,2.20
2005,12,01,02,55,2.20
2005,12,01,02,56,2.20
2005,12,01,02,57,2.20
2005,12,01,02,58,2.10
2005,12,01,02,59,2.10
2005,12,01,03,00,2.10
2005,12,01,03,01,2.10
2005,12,01,03,02,2.10
2005,12,01,03,03,2.10
2005,12,01,03,04,2.00
2005,12,01,03,05,2.00
2005,12,01,03,06,2.00
2005,12,01,03,07,2.00
2005,12,01,03,08,2.00
2005,12,01,03,09,2.00
2005,12,01,03,10,2.00
2005,12,01,03,11,2.10
2005,12,01,03,12,2.10
2005,12,01,03,13,2.10
2005,12,01,03,14,2.10
2005,12,01,03,15,2.10
2005,12,01,03,16,2.10
2005,12,01,03,17,2.10
2005,12,01,03,18,2.10
2005,12,01,03,19,2.10
2005,12,01,03,20,2.10
2005,12,01,03,21,2.10
2005,12,01,03,22,2.10
2005,12,01,03,23,2.10
2005,12,01,03,24,2.10
2005,12,01,03,25,2.10
2005,12,01,03,26,2.10
2005,12,01,03,27,2.10
2005,12,01,03,28,2.10
2005,12,01,03,29,2.10
2005,12,01,03,30,2.10
2005,12,01,03,31,2.10
2005,12,01,03,32,2.10
2005,12,01,03,33,2.10
2005,12,01,03,34,2.10
2005,12,01,03,35,2.00
2005,12,01,03,36,2.00
2005,12,01,03,37,2.00
2005,12,01,03,38,2.00
2005,12,01,03,39,1.90
2005,12,01,03,40,1.90
2005,12,01,03,41,1.90
2005,12,01,03,42,1.90
2005,12,01,03,43,1.80
2005,12,01,03,44,1.80
2005,12,01,03,45,1.80
2005,12,01,03,46,1.80
2005,12,01,03,47,1.80
2005,12,01,03,48,1.80
2005,12,01,03,49,1.80
2005,12,01,03,50,1.80
2005,12,01,03,51,1.80
2005,12,01,03,52,1.80
2005,12,01,03,53,1.80
2005,12,01,03,54,1.80
2005,12,01,03,55,1.80
2005,12,01,03,56,1.70
2005,12,01,03,57,1.70
2005,12,01,03,58,1.70
2005,12,01,03,59,1.70
2005,12,01,04,00,1.60
2005,12,01,04,01,1.60
2005,12,01,04,02,1.60
2005,12,01,04,03,1.60
2005,12,01,04,04,1.60
2005,12,01,04,05,1.60
2005,12,01,04,06,1.60
2005,12,01,04,07,1.50
2005,12,01,04,08,1.50
2005,12,01,04,09,1.50
2005,12,01,04,10,1.50
2005,12,01,04,11,1.50
2005,12,01,04,12,1.50
2005,12,01,04,13,1.50
2005,12,01,04,14,1.40
2005,12,01,04,15,1.40
2005,12,01,04,16,1.40
2005,12,01,04,17,1.30
2005,12,01,04,18,1.30
2005,12,01,04,19,1.30
2005,12,01,04,20,1.30
2005,12,01,04,21,1.30
2005,12,01,04,22,1.30
2005,12,01,04,23,1.20
2005,12,01,04,24,1.20
2005,12,01,04,25,1.20
2005,12,01,04,26,1.20
2005,12,01,04,27,1.10
2005,12,01,04,28,1.10
2005,12,01,04,29,1.10
2005,12,01,04,30,1.10
2005,12,01,04,31,1.10
2005,12,01,04,32,1.10
2005,12,01,04,33,1.10
2005,12,01,04,34,1.00
2005,12,01,04,35,1.00
2005,12,01,04,36,1.00
2005,12,01,04,37,1.00
2005,12,01,04,38,1.00
2005,12,01,04,39,1.00
2005,12,01,04,40,1.00
2005,12,01,04,41,1.00
2005,12,01,04,42,1.00
2005,12,01,04,43,1.00
2005,12,01,04,44,0.90
2005,12,01,04,45,0.90
2005,12,01,04,46,0.90
2005,12,01,04,47,0.90
2005,12,01,04,48,0.90
2005,12,01,04,49,0.80
2005,12,01,04,50,0.80
2005,12,01,04,51,0.80
2005,12,01,04,52,0.80
2005,12,01,04,53,0.80
2005,12,01,04,54,0.80
2005,12,01,04,55,0.80
2005,12,01,04,56,0.80
2005,12,01,04,57,0.80
2005,12,01,04,58,0.80
2005,12,01,04,59,0.80
2005,12,01,05,00,0.80
2005,12,01,05,01,0.80
2005,12,01,05,02,0.80
2005,12,01,05,03,0.80
2005,12,01,05,04,0.80
2005,12,01,05,05,0.80
2005,12,01,05,06,0.80
2005,12,01,05,07,0.80
2005,12,01,05,08,0.80
2005,12,01,05,09,0.80
2005,12,01,05,10,0.80
2005,12,01,05,11,0.80
2005,12,01,05,12,0.80
2005,12,01,05,13,0.80
2005,12,01,05,14,0.80
2005,12,01,05,15,0.80
2005,12,01,05,16,0.80
2005,12,01,05,17,0.80
2005,12,01,05,18,0.80
2005,12,01,05,19,0.80
2005,12,01,05,20,0.80
2005,12,01,05,21,0.80
2005,12,01,05,22,0.80
2005,12,01,05,23,0.70
2005,12,01,05,24,0.70
2005,12,01,05,25,0.70
2005,12,01,05,26,0.80
2005,12,01,05,27,0.80
2005,12,01,05,28,0.80
2005,12,01,05,29,0.70
2005,12,01,05,30,0.70
2005,12,01,05,31,0.70
2005,12,01,05,32,0.70
2005,12,01,05,33,0.70
2005,12,01,05,34,0.80
2005,12,01,05,35,0.80
2005,12,01,05,36,0.80
2005,12,01,05,37,0.80
2005,12,01,05,38,0.80
2005,12,01,05,39,0.80
2005,12,01,05,40,0.80
2005,12,01,05,41,0.80
2005,12,01,05,42,0.80
2005,12,01,05,43,0.80
2005,12,01,05,44,0.80
2005,12,01,05,45,0.90
2005,12,01,05,46,0.90
2005,12,01,05,47,0.90
2005,12,01,05,48,0.90
2005,12,01,05,49,0.90
2005,12,01,05,50,1.00
2005,12,01,05,51,1.00
2005,12,01,05,52,1.00
2005,12,01,05,53,1.00
2005,12,01,05,54,1.00
2005,12,01,05,55,1.00
2005,12,01,05,56,1.00
2005,12,01,05,57,1.00
2005,12,01,05,58,1.10
2005,12,01,05,59,1.10
2005,12,01,06,00,1.10
2005,12,01,06,01,1.00
2005,12,01,06,02,1.00
2005,12,01,06,03,1.10
2005,12,01,06,04,1.10
2005,12,01,06,05,1.10
2005,12,01,06,06,1.10
2005,12,01,06,07,1.10
2005,12,01,06,08,1.10
2005,12,01,06,09,1.10
2005,12,01,06,10,1.10
2005,12,01,06,11,1.20
2005,12,01,06,12,1.20
2005,12,01,06,13,1.10
2005,12,01,06,14,1.10
2005,12,01,06,15,1.10
2005,12,01,06,16,1.10
2005,12,01,06,17,1.10
2005,12,01,06,18,1.10
2005,12,01,06,19,1.10
2005,12,01,06,20,1.10
2005,12,01,06,21,1.10
2005,12,01,06,22,1.10
2005,12,01,06,23,1.10
2005,12,01,06,24,1.10
2005,12,01,06,25,1.10
2005,12,01,06,26,1.10
2005,12,01,06,27,1.10
2005,12,01,06,28,1.10
2005,12,01,06,29,1.10
2005,12,01,06,30,1.10
2005,12,01,06,31,1.10
2005,12,01,06,32,1.10
2005,12,01,06,33,1.10
2005,12,01,06,34,1.00
2005,12,01,06,35,1.10
2005,12,01,06,36,1.10
2005,12,01,06,37,1.00
2005,12,01,06,38,1.00
2005,12,01,06,39,1.00
2005,12,01,06,40,1.00
2005,12,01,06,41,1.00
2005,12,01,06,42,0.90
2005,12,01,06,43,0.90
2005,12,01,06,44,0.90
2005,12,01,06,45,0.90
2005,12,01,06,46,0.80
2005,12,01,06,47,0.80
2005,12,01,06,48,0.80
2005,12,01,06,49,0.80
2005,12,01,06,50,0.80
2005,12,01,06,51,0.80
2005,12,01,06,52,0.80
2005,12,01,06,53,0.80
2005,12,01,06,54,0.80
2005,12,01,06,55,0.80
2005,12,01,06,56,0.80
2005,12,01,06,57,0.80
2005,12,01,06,58,0.80
2005,12,01,06,59,0.90
2005,12,01,07,00,0.90
2005,12,01,07,01,0.90
2005,12,01,07,02,0.90
2005,12,01,07,03,0.90
2005,12,01,07,04,0.90
2005,12,01,07,05,0.90
2005,12,01,07,06,1.00
2005,12,01,07,07,1.00
2005,12,01,07,08,1.00
2005,12,01,07,09,1.00
2005,12,01,07,10,1.00
2005,12,01,07,11,1.00
2005,12,01,07,12,1.00
2005,12,01,07,13,1.00
2005,12,01,07,14,1.00
2005,12,01,07,15,0.90
2005,12,01,07,16,0.90
2005,12,01,07,17,0.90
2005,12,01,07,18,0.90
2005,12,01,07,19,0.90
2005,12,01,07,20,0.90
2005,12,01,07,21,0.90
2005,12,01,07,22,1.00
2005,12,01,07,23,1.00
2005,12,01,07,24,1.00
2005,12,01,07,25,1.00
2005,12,01,07,26,1.00
2005,12,01,07,27,1.00
2005,12,01,07,28,1.00
2005,12,01,07,29,1.00
2005,12,01,07,30,1.00
2005,12,01,07,31,1.00
2005,12,01,07,32,1.10
2005,12,01,07,33,1.10
2005,12,01,07,34,1.10
2005,12,01,07,35,1.00
2005,12,01,07,36,1.00
2005,12,01,07,37,1.10
2005,12,01,07,38,1.10
2005,12,01,07,39,1.10
2005,12,01,07,40,1.10
2005,12,01,07,41,1.10
2005,12,01,07,42,1.10
2005,12,01,07,43,1.10
2005,12,01,07,44,1.10
2005,12,01,07,45,1.10
2005,12,01,07,46,1.10
2005,12,01,07,47,1.10
2005,12,01,07,48,1.10
2005,12,01,07,49,1.10
2005,12,01,07,50,1.10
2005,12,01,07,51,1.10
2005,12,01,07,52,1.10
2005,12,01,07,53,1.10
2005,12,01,07,54,1.10
2005,12,01,07,55,1.10
2005,12,01,07,56,1.10
2005,12,01,07,57,1.10
2005,12,01,07,58,1.10
2005,12,01,07,59,1.10
2005,12,01,08,00,1.10
2005,12,01,08,01,1.00
2005,12,01,08,02,1.00
2005,12,01,08,03,1.00
2005,12,01,08,04,1.10
2005,12,01,08,05,1.10
2005,12,01,08,06,1.10
2005,12,01,08,07,1.10
2005,12,01,08,08,1.10
2005,12,01,08,09,1.10
2005,12,01,08,10,1.10
2005,12,01,08,11,1.10
2005,12,01,08,12,1.20
2005,12,01,08,13,1.30
2005,12,01,08,14,1.30
2005,12,01,08,15,1.30
2005,12,01,08,16,1.30
2005,12,01,08,17,1.30
2005,12,01,08,18,1.30
2005,12,01,08,19,1.40
2005,12,01,08,20,1.40
2005,12,01,08,21,1.40
2005,12,01,08,22,1.50
2005,12,01,08,23,1.50
2005,12,01,08,24,1.50
2005,12,01,08,25,1.60
2005,12,01,08,26,1.60
2005,12,01,08,27,1.60
2005,12,01,08,28,1.70
2005,12,01,08,29,1.70
2005,12,01,08,30,1.70
2005,12,01,08,31,1.70
2005,12,01,08,32,1.80
2005,12,01,08,33,1.80
2005,12,01,08,34,1.80
2005,12,01,08,35,1.80
2005,12,01,08,36,1.80
2005,12,01,08,37,1.80
2005,12,01,08,38,1.80
2005,12,01,08,39,1.80
2005,12,01,08,40,1.80
2005,12,01,08,41,1.80
2005,12,01,08,42,1.80
2005,12,01,08,43,1.80
2005,12,01,08,44,1.80
2005,12,01,08,45,1.90
2005,12,01,08,46,1.90
2005,12,01,08,47,1.90
2005,12,01,08,48,1.90
2005,12,01,08,49,1.90
2005,12,01,08,50,1.90
2005,12,01,08,51,1.90
2005,12,01,08,52,1.90
2005,12,01,08,53,2.00
2005,12,01,08,54,2.00
2005,12,01,08,55,2.00
2005,12,01,08,56,2.00
2005,12,01,08,57,2.00
2005,12,01,08,58,2.00
2005,12,01,08,59,2.00
2005,12,01,09,00,2.10
2005,12,01,09,01,2.10
2005,12,01,09,02,2.10
2005,12,01,09,03,2.10
2005,12,01,09,04,2.10
2005,12,01,09,05,2.10
2005,12,01,09,06,2.20
2005,12,01,09,07,2.20
2005,12,01,09,08,2.20
2005,12,01,09,09,2.20
2005,12,01,09,10,2.20
2005,12,01,09,11,2.20
2005,12,01,09,12,2.20
2005,12,01,09,13,2.20
2005,12,01,09,14,2.20
2005,12,01,09,15,2.20
2005,12,01,09,16,2.20
2005,12,01,09,17,2.20
2005,12,01,09,18,2.20
2005,12,01,09,19,2.20
2005,12,01,09,20,2.20
2005,12,01,09,21,2.20
2005,12,01,09,22,2.20
2005,12,01,09,23,2.20
2005,12,01,09,24,2.20
2005,12,01,09,25,2.20
2005,12,01,09,26,2.20
2005,12,01,09,27,2.20
2005,12,01,09,28,2.20
2005,12,01,09,29,2.30
2005,12,01,09,30,2.20
2005,12,01,09,31,2.30
2005,12,01,09,32,2.30
2005,12,01,09,33,2.30
2005,12,01,09,34,2.40
2005,12,01,09,35,2.40
2005,12,01,09,36,2.40
2005,12,01,09,37,2.40
2005,12,01,09,38,2.40
2005,12,01,09,39,2.40
2005,12,01,09,40,2.40
2005,12,01,09,41,2.40
2005,12,01,09,42,2.40
2005,12,01,09,43,2.50
2005,12,01,09,44,2.50
2005,12,01,09,45,2.50
2005,12,01,09,46,2.50
2005,12,01,09,47,2.50
2005,12,01,09,48,2.50
2005,12,01,09,49,2.50
2005,12,01,09,50,2.50
2005,12,01,09,51,2.50
2005,12,01,09,52,2.60
2005,12,01,09,53,2.60
2005,12,01,09,54,2.60
2005,12,01,09,55,2.60
2005,12,01,09,56,2.60
2005,12,01,09,57,2.60
2005,12,01,09,58,2.60
2005,12,01,09,59,2.60
2005,12,01,10,00,2.60
2005,12,01,10,01,2.60
2005,12,01,10,02,2.60
2005,12,01,10,03,2.60
2005,12,01,10,04,2.70
2005,12,01,10,05,2.70
2005,12,01,10,06,2.70
2005,12,01,10,07,2.60
2005,12,01,10,08,2.60
2005,12,01,10,09,2.60
2005,12,01,10,10,2.60
2005,12,01,10,11,2.60
2005,12,01,10,12,2.60
2005,12,01,10,13,2.60
2005,12,01,10,14,2.60
2005,12,01,10,15,2.60
2005,12,01,10,16,2.60
2005,12,01,10,17,2.60
2005,12,01,10,18,2.70
2005,12,01,10,19,2.70
2005,12,01,10,20,2.70
2005,12,01,10,21,2.70
2005,12,01,10,22,2.70
2005,12,01,10,23,2.70
2005,12,01,10,24,2.70
2005,12,01,10,25,2.70
2005,12,01,10,26,2.70
2005,12,01,10,27,2.70
2005,12,01,10,28,2.70
2005,12,01,10,29,2.70
2005,12,01,10,30,2.70
2005,12,01,10,31,2.70
2005,12,01,10,32,2.70
2005,12,01,10,33,2.70
2005,12,01,10,34,2.70
2005,12,01,10,35,2.70
2005,12,01,10,36,2.70
2005,12,01,10,37,2.70
2005,12,01,10,38,2.70
2005,12,01,10,39,2.70
2005,12,01,10,40,2.70
2005,12,01,10,41,2.70
2005,12,01,10,42,2.70
2005,12,01,10,43,2.70
2005,12,01,10,44,2.70
2005,12,01,10,45,2.70
2005,12,01,10,46,2.70
2005,12,01,10,47,2.70
2005,12,01,10,48,2.70
2005,12,01,10,49,2.70
2005,12,01,10,50,2.70
2005,12,01,10,51,2.70
2005,12,01,10,52,2.70
2005,12,01,10,53,2.70
2005,12,01,10,54,2.70
2005,12,01,10,55,2.70
2005,12,01,10,56,2.70
2005,12,01,10,57,2.70
2005,12,01,10,58,2.70
2005,12,01,10,59,2.70
2005,12,01,11,00,2.70
2005,12,01,11,01,2.70
2005,12,01,11,02,2.70
2005,12,01,11,03,2.70
2005,12,01,11,04,2.70
2005,12,01,11,05,2.70
2005,12,01,11,06,2.70
2005,12,01,11,07,2.70
2005,12,01,11,08,2.70
2005,12,01,11,09,2.70
2005,12,01,11,10,2.70
2005,12,01,11,11,2.70
2005,12,01,11,12,2.70
2005,12,01,11,13,2.70
2005,12,01,11,14,2.70
2005,12,01,11,15,2.70
2005,12,01,11,16,2.70
2005,12,01,11,17,2.70
2005,12,01,11,18,2.70
2005,12,01,11,19,2.70
2005,12,01,11,20,2.70
2005,12,01,11,21,2.70
2005,12,01,11,22,2.70
2005,12,01,11,23,2.70
2005,12,01,11,24,2.70
2005,12,01,11,25,2.70
2005,12,01,11,26,2.70
2005,12,01,11,27,2.70
2005,12,01,11,28,2.70
2005,12,01,11,29,2.70
2005,12,01,11,30,2.70
2005,12,01,11,31,2.70
2005,12,01,11,32,2.70
2005,12,01,11,33,2.70
2005,12,01,11,34,2.70
2005,12,01,11,35,2.70
2005,12,01,11,36,2.70
2005,12,01,11,37,2.70
2005,12,01,11,38,2.70
2005,12,01,11,39,2.70
2005,12,01,11,40,2.70
2005,12,01,11,41,2.70
2005,12,01,11,42,2.70
2005,12,01,11,43,2.70
2005,12,01,11,44,2.70
2005,12,01,11,45,2.70
2005,12,01,11,46,2.70
2005,12,01,11,47,2.80
2005,12,01,11,48,2.80
2005,12,01,11,49,2.80
2005,12,01,11,50,2.80
2005,12,01,11,51,2.80
2005,12,01,11,52,2.80
2005,12,01,11,53,2.90
2005,12,01,11,54,2.90
2005,12,01,11,55,2.90
2005,12,01,11,56,2.90
2005,12,01,11,57,2.90
2005,12,01,11,58,2.90
2005,12,01,11,59,2.90
2005,12,01,12,00,2.90
2005,12,01,12,01,2.90
2005,12,01,12,02,2.90
2005,12,01,12,03,2.90
2005,12,01,12,04,2.90
2005,12,01,12,05,2.90
2005,12,01,12,06,2.90
2005,12,01,12,07,2.90
2005,12,01,12,08,2.90
2005,12,01,12,09,2.90
2005,12,01,12,10,2.90
2005,12,01,12,11,2.90
2005,12,01,12,12,3.00
2005,12,01,12,13,3.10
2005,12,01,12,14,3.10
2005,12,01,12,15,3.10
2005,12,01,12,16,3.10
2005,12,01,12,17,3.10
2005,12,01,12,18,3.10
2005,12,01,12,19,3.10
2005,12,01,12,20,3.10
2005,12,01,12,21,3.10
2005,12,01,12,22,3.10
2005,12,01,12,23,3.10
2005,12,01,12,24,3.10
2005,12,01,12,25,3.10
2005,12,01,12,26,3.10
2005,12,01,12,27,3.10
2005,12,01,12,28,3.10
2005,12,01,12,29,3.10
2005,12,01,12,30,3.10
2005,12,01,12,31,3.10
2005,12,01,12,32,3.10
2005,12,01,12,33,3.10
2005,12,01,12,34,3.10
2005,12,01,12,35,3.10
2005,12,01,12,36,3.10
2005,12,01,12,37,3.10
2005,12,01,12,38,3.10
2005,12,01,12,39,3.10
2005,12,01,12,40,3.10
2005,12,01,12,41,3.10
2005,12,01,12,42,3.10
2005,12,01,12,43,3.10
2005,12,01,12,44,3.00
2005,12,01,12,45,2.90
2005,12,01,12,46,2.80
2005,12,01,12,47,2.70
2005,12,01,12,48,2.50
2005,12,01,12,49,2.40
2005,12,01,12,50,2.40
2005,12,01,12,51,2.30
2005,12,01,12,52,2.30
2005,12,01,12,53,2.30
2005,12,01,12,54,2.20
2005,12,01,12,55,2.20
2005,12,01,12,56,2.20
2005,12,01,12,57,2.20
2005,12,01,12,58,2.10
2005,12,01,12,59,2.10
2005,12,01,13,00,2.00
2005,12,01,13,01,2.00
2005,12,01,13,02,2.00
2005,12,01,13,03,1.90
2005,12,01,13,04,1.90
2005,12,01,13,05,1.90
2005,12,01,13,06,1.80
2005,12,01,13,07,1.80
2005,12,01,13,08,1.70
2005,12,01,13,09,1.60
2005,12,01,13,10,1.50
2005,12,01,13,11,1.50
2005,12,01,13,12,1.40
2005,12,01,13,13,1.30
2005,12,01,13,14,1.30
2005,12,01,13,15,1.20
2005,12,01,13,16,1.20
2005,12,01,13,17,1.10
2005,12,01,13,18,1.10
2005,12,01,13,19,1.00
2005,12,01,13,20,1.00
2005,12,01,13,21,0.90
2005,12,01,13,22,0.90
2005,12,01,13,23,0.80
2005,12,01,13,24,0.80
2005,12,01,13,25,0.80
2005,12,01,13,26,0.80
2005,12,01,13,27,0.80
2005,12,01,13,28,0.70
2005,12,01,13,29,0.60
2005,12,01,13,30,0.60
2005,12,01,13,31,0.50
2005,12,01,13,32,0.50
2005,12,01,13,33,0.50
2005,12,01,13,34,0.50
2005,12,01,13,35,0.40
2005,12,01,13,36,0.40
2005,12,01,13,37,0.40
2005,12,01,13,38,0.40
2005,12,01,13,39,0.40
2005,12,01,13,40,0.40
2005,12,01,13,41,0.40
2005,12,01,13,42,0.40
2005,12,01,13,43,0.40
2005,12,01,13,44,0.40
2005,12,01,13,45,0.40
2005,12,01,13,46,0.40
2005,12,01,13,47,0.40
2005,12,01,13,48,0.40
2005,12,01,13,49,0.40
2005,12,01,13,50,0.30
2005,12,01,13,51,0.30
2005,12,01,13,52,0.40
2005,12,01,13,53,0.40
2005,12,01,13,54,0.40
2005,12,01,13,55,0.40
2005,12,01,13,56,0.40
2005,12,01,13,57,0.40
2005,12,01,13,58,0.40
2005,12,01,13,59,0.40
2005,12,01,14,00,0.40
2005,12,01,14,01,0.40
2005,12,01,14,02,0.40
2005,12,01,14,03,0.40
2005,12,01,14,04,0.40
2005,12,01,14,05,0.30
2005,12,01,14,06,0.30
2005,12,01,14,07,0.30
2005,12,01,14,08,0.30
2005,12,01,14,09,0.30
2005,12,01,14,10,0.30
2005,12,01,14,11,0.30
2005,12,01,14,12,0.30
2005,12,01,14,13,0.30
2005,12,01,14,14,0.30
2005,12,01,14,15,0.20
2005,12,01,14,16,0.20
2005,12,01,14,17,0.20
2005,12,01,14,18,0.20
2005,12,01,14,19,0.20
2005,12,01,14,20,0.20
2005,12,01,14,21,0.20
2005,12,01,14,22,0.20
2005,12,01,14,23,0.10
2005,12,01,14,24,0.10
2005,12,01,14,25,0.10
2005,12,01,14,26,0.10
2005,12,01,14,27,0.10
2005,12,01,14,28,0.10
2005,12,01,14,29,0.10
2005,12,01,14,30,0.10
2005,12,01,14,31,0.10
2005,12,01,14,32,0.10
2005,12,01,14,33,0.10
2005,12,01,14,34,0.10
2005,12,01,14,35,0.10
2005,12,01,14,36,0.10
2005,12,01,14,37,0.10
2005,12,01,14,38,0.10
2005,12,01,14,39,0.10
2005,12,01,14,40,0.10
2005,12,01,14,41,0.10
2005,12,01,14,42,0.10
2005,12,01,14,43,0.10
2005,12,01,14,44,0.10
2005,12,01,14,45,0.10
2005,12,01,14,46,0.10
2005,12,01,14,47,0.10
2005,12,01,14,48,0.10
2005,12,01,14,49,0.10
2005,12,01,14,50,0.10
2005,12,01,14,51,0.10
2005,12,01,14,52,0.10
2005,12,01,14,53,0.10
2005,12,01,14,54,0.10
2005,12,01,14,55,0.10
2005,12,01,14,56,0.10
2005,12,01,14,57,0.10
2005,12,01,14,58,0.10
2005,12,01,14,59,0.10
2005,12,01,15,00,0.10
2005,12,01,15,01,0.10
2005,12,01,15,02,0.00
2005,12,01,15,03,0.00
2005,12,01,15,04,0.00
2005,12,01,15,05,-0.10
2005,12,01,15,06,-0.10
2005,12,01,15,07,-0.10
2005,12,01,15,08,-0.10
2005,12,01,15,09,-0.10
2005,12,01,15,10,-0.10
2005,12,01,15,11,-0.10
2005,12,01,15,12,-0.10
2005,12,01,15,13,-0.10
2005,12,01,15,14,-0.10
2005,12,01,15,15,-0.10
2005,12,01,15,16,-0.10
2005,12,01,15,17,-0.10
2005,12,01,15,18,-0.10
2005,12,01,15,19,-0.10
2005,12,01,15,20,0.00
2005,12,01,15,21,0.10
2005,12,01,15,22,0.10
2005,12,01,15,23,0.10
2005,12,01,15,24,0.10
2005,12,01,15,25,0.10
2005,12,01,15,26,0.10
2005,12,01,15,27,0.10
2005,12,01,15,28,0.10
2005,12,01,15,29,0.10
2005,12,01,15,30,0.10
2005,12,01,15,31,0.10
2005,12,01,15,32,0.10
2005,12,01,15,33,0.10
2005,12,01,15,34,0.10
2005,12,01,15,35,0.10
2005,12,01,15,36,0.10
2005,12,01,15,37,0.10
2005,12,01,15,38,0.10
2005,12,01,15,39,0.10
2005,12,01,15,40,0.10
2005,12,01,15,41,0.10
2005,12,01,15,42,0.10
2005,12,01,15,43,0.10
2005,12,01,15,44,0.10
2005,12,01,15,45,0.10
2005,12,01,15,46,0.10
2005,12,01,15,47,0.10
2005,12,01,15,48,0.10
2005,12,01,15,49,0.10
2005,12,01,15,50,0.00
2005,12,01,15,51,-0.10
2005,12,01,15,52,-0.10
2005,12,01,15,53,-0.10
2005,12,01,15,54,-0.10
2005,12,01,15,55,-0.10
2005,12,01,15,56,-0.10
2005,12,01,15,57,-0.10
2005,12,01,15,58,-0.10
2005,12,01,15,59,-0.10
2005,12,01,16,00,-0.10
2005,12,01,16,01,-0.10
2005,12,01,16,02,-0.10
2005,12,01,16,03,-0.10
2005,12,01,16,04,-0.10
2005,12,01,16,05,-0.10
2005,12,01,16,06,-0.10
2005,12,01,16,07,-0.10
2005,12,01,16,08,-0.10
2005,12,01,16,09,-0.10
2005,12,01,16,10,-0.10
2005,12,01,16,11,-0.10
2005,12,01,16,12,-0.10
2005,12,01,16,13,-0.10
2005,12,01,16,14,-0.10
2005,12,01,16,15,-0.10
2005,12,01,16,16,-0.10
2005,12,01,16,17,-0.10
2005,12,01,16,18,-0.10
2005,12,01,16,19,-0.10
2005,12,01,16,20,-0.10
2005,12,01,16,21,-0.10
2005,12,01,16,22,-0.10
2005,12,01,16,23,-0.10
2005,12,01,16,24,-0.10
2005,12,01,16,25,-0.10
2005,12,01,16,26,-0.10
2005,12,01,16,27,-0.10
2005,12,01,16,28,-0.10
2005,12,01,16,29,-0.10
2005,12,01,16,30,-0.10
2005,12,01,16,31,-0.10
2005,12,01,16,32,-0.10
2005,12,01,16,33,-0.10
2005,12,01,16,34,-0.10
2005,12,01,16,35,-0.10
2005,12,01,16,36,-0.10
2005,12,01,16,37,-0.10
2005,12,01,16,38,-0.10
2005,12,01,16,39,-0.10
2005,12,01,16,40,-0.10
2005,12,01,16,41,-0.10
2005,12,01,16,42,-0.10
2005,12,01,16,43,-0.10
2005,12,01,16,44,-0.10
2005,12,01,16,45,-0.10
2005,12,01,16,46,-0.10
2005,12,01,16,47,-0.10
2005,12,01,16,48,-0.10
2005,12,01,16,49,-0.10
2005,12,01,16,50,-0.10
2005,12,01,16,51,-0.10
2005,12,01,16,52,-0.10
2005,12,01,16,53,-0.10
2005,12,01,16,54,-0.10
2005,12,01,16,55,-0.10
2005,12,01,16,56,-0.10
2005,12,01,16,57,-0.10
2005,12,01,16,58,-0.10
2005,12,01,16,59,-0.10
2005,12,01,17,00,-0.10
2005,12,01,17,01,-0.10
2005,12,01,17,02,-0.10
2005,12,01,17,03,-0.10
2005,12,01,17,04,-0.10
2005,12,01,17,05,-0.10
2005,12,01,17,06,-0.10
2005,12,01,17,07,-0.10
2005,12,01,17,08,-0.10
2005,12,01,17,09,-0.10
2005,12,01,17,10,-0.10
2005,12,01,17,11,-0.10
2005,12,01,17,12,-0.10
2005,12,01,17,13,-0.10
2005,12,01,17,14,-0.10
2005,12,01,17,15,-0.10
2005,12,01,17,16,-0.10
2005,12,01,17,17,-0.10
2005,12,01,17,18,-0.10
2005,12,01,17,19,-0.10
2005,12,01,17,20,-0.10
2005,12,01,17,21,-0.10
2005,12,01,17,22,-0.10
2005,12,01,17,23,-0.10
2005,12,01,17,24,-0.10
2005,12,01,17,25,-0.10
2005,12,01,17,26,-0.10
2005,12,01,17,27,-0.10
2005,12,01,17,28,-0.10
2005,12,01,17,29,-0.10
2005,12,01,17,30,-0.10
2005,12,01,17,31,-0.10
2005,12,01,17,32,-0.10
2005,12,01,17,33,-0.10
2005,12,01,17,34,-0.10
2005,12,01,17,35,-0.10
2005,12,01,17,36,-0.10
2005,12,01,17,37,-0.10
2005,12,01,17,38,-0.10
2005,12,01,17,39,-0.10
2005,12,01,17,40,-0.10
2005,12,01,17,41,-0.10
2005,12,01,17,42,-0.10
2005,12,01,17,43,-0.10
2005,12,01,17,44,-0.10
2005,12,01,17,45,-0.10
2005,12,01,17,46,-0.10
2005,12,01,17,47,-0.10
2005,12,01,17,48,-0.10
2005,12,01,17,49,-0.10
2005,12,01,17,50,-0.10
2005,12,01,17,51,-0.10
2005,12,01,17,52,-0.10
2005,12,01,17,53,-0.10
2005,12,01,17,54,-0.10
2005,12,01,17,55,-0.10
2005,12,01,17,56,-0.10
2005,12,01,17,57,-0.10
2005,12,01,17,58,-0.10
2005,12,01,17,59,-0.10
2005,12,01,18,00,-0.10